Location: *
(48.8780°N, 19.2358°E)
Time: 08:40:13
(UTC+00:00)

CZ-2C R/B - Pass Details

Date: 18 October 2019
Orbit: 703 x 909 km, 98.1° (Epoch: 18 November)

Event Time Altitude Azimuth Distance (km) Brightness Sun altitude
Exits shadow 19:12:03 52° 326° (NW) 1,119 4.0 -33.5°
Drops below altitude 10° 19:16:26 10° 343° (NNW) 2,584 6.2 -34.2°
Sets 19:18:51 0° 345° (NNW) 3,513 6.9 -34.5°
